This is the latest recevied weather packets stored in our database for station/object CQ0XPG-11. If no packets are shown the sender has not sent any weather packets the latest 1 day(s).
| Time | Temp. | Humidity | Pressure | Rain* | Wind** | Luminosity | Snow |
|---|---|---|---|---|---|---|---|
| 1778040547 | 3.89° C | 100% | 1004 hPa | 0 mm | 0 m/s | - | - |
| 1778040214 | 3.33° C | 100% | 1004 hPa | 0 mm | 0 m/s | - | - |
| 1778039317 | 3.89° C | 100% | 1004.1 hPa | 0 mm | 0 m/s | - | - |
| 1778039023 | 3.89° C | 100% | 1004.3 hPa | 0 mm | 0 m/s | - | - |
| 1778038726 | 3.89° C | 100% | 1004.2 hPa | 0 mm | 0 m/s | - | - |
| 1778037198 | 3.89° C | 100% | 1004.4 hPa | 0 mm | 0 m/s | - | - |
| 1778036906 | 3.89° C | 100% | 1004.4 hPa | 0 mm | 0.45 m/s, 337° | - | - |
| 1778036582 | 4.44° C | 100% | 1004.4 hPa | 0 mm | 0 m/s | - | - |
| 1778036267 | 4.44° C | 100% | 1004.4 hPa | 0 mm | 0.45 m/s, 337° | - | - |
| 1778036000 | 4.44° C | 100% | 1004.4 hPa | 0 mm | 0.45 m/s, 337° | - | - |
| 1778035662 | 4.44° C | 100% | 1004.6 hPa | 0 mm | 0.45 m/s, 337° | - | - |
| 1778035373 | 4.44° C | 100% | 1004.6 hPa | 0 mm | 0.45 m/s, 337° | - | - |
| 1778035083 | 5° C | 100% | 1004.6 hPa | 0 mm | 0 m/s | - | - |
| 1778034785 | 5° C | 100% | 1004.6 hPa | 0 mm | 0 m/s | - | - |
| 1778034477 | 5° C | 100% | 1004.6 hPa | 0 mm | 0 m/s | - | - |
| 1778033840 | 5° C | 100% | 1004.8 hPa | 0 mm | 0.45 m/s, 337° | - | - |
| 1778033542 | 5° C | 100% | 1004.9 hPa | 0 mm | 0 m/s | - | - |
| 1778032939 | 5.56° C | 100% | 1004.8 hPa | 0 mm | 0 m/s | - | - |
| 1778032625 | 5.56° C | 100% | 1004.8 hPa | 0 mm | 0 m/s | - | - |
| 1778032025 | 5.56° C | 100% | 1004.9 hPa | 0 mm | 0 m/s | - | - |
| 1778031431 | 5.56° C | 100% | 1005.1 hPa | 0 mm | 0 m/s | - | - |
| 1778031124 | 6.11° C | 100% | 1005.1 hPa | 0 mm | 0 m/s | - | - |
| 1778030807 | 6.67° C | 100% | 1005.2 hPa | 0 mm | 0 m/s | - | - |
| 1778030563 | 6.67° C | 100% | 1005.2 hPa | 0 mm | 0 m/s | - | - |
| 1778030193 | 6.11° C | 100% | 1005.3 hPa | 0 mm | 0 m/s | - | - |
* Rain since midnight (hover to see other rain measurements)
** Current wind speed in m/s (hover to see current wind gust speed)